STARLINK-31853, 59933

Orbit data source: Space-Track

STARLINK-31853, 59933 is a payload satellite owned by SpaceX/Seattle (US) in LEO that was launched on Sat, 01 Jun 2024 UTC via an FALCON 9 launch vehicle from the Air Force Eastern Test Range (AFETR). Payload-class satellites include a variety of spacecraft equipped with specific instruments for various scientific and technological missions. These include communications satellites like Starlink; space stations such as the ISS; scientific satellites like the Hubble; Earth observation satellites from companies like Planet Labs, Umbra, and HawkEye 360; GPS; miniature CubeSats for education and research; and military/defense satellites.

Loading next visibility...
Identifier
59933, 2024-106M
Orbit
LEO
Last TLE update
21 hours ago
Origin
Manufacturer
SpaceX/Seattle
Mission
Operational spacecraft
Bus & Motor
STARLINK V2M, Unknown motor
Mass
730 kg wet, ~700 kg dry
Launch date (UTC)
2024-06-01 (11 months ago)
Launch vehicle
FALCON 9
Launch site
Air Force Eastern Test Range (AFETR)
Object type
Payload
Rocket body
Debris
Shape & HBR
Unknown
Radar Cross Section
Large (>1 m²)

Expand to show TLE details & history

TLE from 21 hours ago
0 STARLINK-31853
1 59933U 24106M   25128.40706974 -.00000794  00000-0 -19347-4 0  9997
2 59933  43.0037 256.6102 0000935 273.3303  86.7442 15.27564831 53830
Epoch: 2025-05-08T09:46Z
Definitive object data (Epoch: 2025-05-08T09:46:10.825Z)
Latitude
-0°
Longitude
-116.41292°
Altitude
482.834 km
Speed
7.626 km/s
True Right ascension
17h 06m 26s
True Declination
0° 00' 00"
Sunlit
Object was in full shadow at TLE epoch
Visualization TLE readout
Latitude
-12.46266°
Longitude
72.21229°
Altitude
485.216 km
Speed
7.624 km/s
Apparent Right ascension
04h 38m 02s
Apparent Declination
-26° 44' 28"
Sunlit
Object is in daylight
Visualization observer readout
Local Sidereal Time
15:10:59
Azimuth
299.465° NW
Elevation
-67.646°
Doppler factor
1
Orbital elements
Apogee altitude
485.681 km
Perigee altitude
484.397 km
Semi-major axis
6,863.176 km
Eccentricity
0.0000935
Inclination
43.0037°
RAAN
256.6102°
Arg. of periapsis
273.3303°
True anomaly
86.7549°
Mean anomaly
86.7442°
Eccentric anomaly
86.74955°
Mean motion
3.81729 °/min
BSTAR
-0.000019347
Orbital period
94.31 mins
Loading maneuver chart data...
Loading SW <> Apogee altitude chart data...
Loading historical data...
Loading historical data...
Loading historical data...
Loading historical data...
Loading historical data...
Loading historical data...
Loading historical data...

STARLINK-31853 Visibility forecast

Observer location: undefined°, undefined°

Span
Click to sort rows by Start time (UTC) header in descending order
Start Az.
Max El. time (UTC)
Max El. Az.
Max El.
End time (UTC)
End Az.
5 mins2025-05-09 11:04:03.585Z192.771° SSW2025-05-09 11:06:03.585Z156.363° SSE20.666°2025-05-09 11:09:03.585Z96.867° ESE
5 mins2025-05-09 12:43:03.585Z251.016° W2025-05-09 12:45:03.585Z251.425° W44.935°2025-05-09 12:48:03.585Z71.839° E
5 mins2025-05-09 14:22:03.585Z289.951° WNW2025-05-09 14:24:03.585Z345.225° N37.669°2025-05-09 14:27:03.585Z72.478° E
6 mins2025-05-09 16:01:03.585Z290.237° WNW2025-05-09 16:03:03.585Z309.088° NW43.142°2025-05-09 16:07:03.585Z105.121° ESE
5 mins2025-05-09 17:40:03.585Z259.439° W2025-05-09 17:42:03.585Z215.458° SW23.898°2025-05-09 17:45:03.585Z157.087° SSE
|